Location: Dedrick
(40.8626°N, 123.0367°W)
Time: 12:39:02
(UTC+00:00)

Daily predictions for brighter satellites

Satellite Brightness Start Highest point End
(mag) Time Altitude Azimuth Time Altitude Azimuth Time Altitude Azimuth
SL-24 DEB 4.5 12:01:01 10° N 12:05:24 50° W 12:09:46 10° SSW
Cosmos 1727 Rocket 4.5 12:04:21 10° N 12:10:37 68° E 12:16:53 10° SSE
NOSS 0 Rocket 4.5 12:05:45 10° NW 12:11:23 37° WSW 12:16:59 10° S
Thor Agena Rocket 3.6 12:09:10 10° NNE 12:14:26 83° WNW 12:19:42 10° SSW
SL-8 Rocket 4.4 12:09:18 10° SSW 12:15:11 46° WNW 12:21:05 10° N
